Wind_Speed
9 9 10 10 10 11 11 12 12 12 11 10 9 8 7 7 9 11 11 10 12 9 16 11 12 11 11 13 13 11 13 5 3 2 5 12 8 8 1 6 7 4 7 12 19
9 9 10 10 11 11 12 13 13 13 12 10 10 9 8 9 12 12 10 10 10 14 16 17 15 13 15 15 12 16 12 10 10 6 8 4 4 6 6 9 8 8 11 17 19
9 9 10 10 10 11 12 13 14 13 11 11 10 9 8 10 3 3 5 6 13 15 13 14 11 12 15 14 16 15 17 10 3 2 7 13 10 2 5 14 10 25 18 17 17
8 9 9 10 10 11 12 13 13 12 11 11 10 8 7 5 2 3 3 4 10 18 14 15 13 15 15 14 15 14 15 7 9 7 12 12 11 11 5 13 13 10 18 18 17
9 9 9 10 11 11 12 12 12 12 11 11 9 7 6 5 0 3 4 7 14 15 16 16 16 17 14 15 15 14 16 10 13 12 9 13 13 4 11 6 4 9 13 17 16
10 10 11 11 12 12 12 12 12 13 12 10 9 7 4 9 1 5 6 8 12 13 14 15 12 17 12 16 16 12 21 13 17 18 8 10 16 6 6 2 6 10 14 15 15
10 11 11 12 13 13 13 13 13 14 13 11 8 7 8 6 4 8 11 11 10 12 12 13 11 13 12 8 17 14 13 17 21 11 11 10 20 20 8 8 10 11 13 14 14
10 11 12 13 13 13 14 14 15 15 13 11 9 6 8 10 6 11 13 11 11 10 11 11 9 14 13 11 6 15 18 18 14 1 7 9 15 14 9 10 9 11 12 13 15
10 11 12 12 13 13 14 14 16 15 13 10 5 3 5 2 9 12 15 12 11 7 8 10 9 14 14 11 14 15 15 18 6 3 6 7 13 7 3 7 10 10 10 13 15
11 11 11 12 13 13 13 15 13 12 7 5 4 6 8 5 11 14 15 12 13 10 8 11 11 12 12 13 13 12 17 8 8 5 8 9 14 8 8 7 7 12 11 12 16
12 12 11 12 12 11 10 10 9 3 6 14 6 10 2 5 9 14 17 16 12 13 13 17 11 16 17 16 16 16 12 10 2 4 8 12 5 10 9 11 9 9 12 11 13
13 13 12 11 10 7 6 6 4 7 13 15 15 14 10 9 10 15 19 17 14 15 16 9 17 17 14 13 13 14 12 13 12 4 8 12 13 12 12 10 7 11 9 12 12
13 12 11 10 8 3 4 2 6 8 9 11 9 12 13 19 18 21 24 22 15 16 15 17 3 13 15 14 14 14 14 12 13 9 10 14 17 19 3 8 5 5 7 11 11
14 12 10 6 2 5 3 4 8 5 6 11 11 9 9 12 15 20 25 21 12 16 15 14 19 8 10 16 14 14 14 11 12 10 13 8 12 9 17 9 11 10 8 10 9
13 12 9 7 6 4 2 6 7 3 6 8 12 10 11 14 7 23 22 25 17 15 11 14 11 15 14 14 15 13 2 7 11 14 14 13 7 3 10 8 8 8 8 7 5
13 13 10 8 8 9 7 7 5 7 11 9 10 12 13 17 11 15 22 27 17 14 13 18 4 9 14 12 12 12 6 9 10 12 13 15 15 5 4 3 6 4 6 7 7
15 14 12 12 6 6 6 6 7 10 7 9 11 11 16 13 15 13 21 23 16 14 15 16 16 12 10 13 13 13 12 9 10 11 14 8 5 7 4 6 1 8 9 10 10
14 13 14 14 10 9 7 10 13 8 20 4 3 7 14 12 16 17 19 20 22 18 14 13 14 20 14 15 11 18 15 12 12 5 5 8 8 3 8 11 6 5 8 11 11
11 7 10 7 14 13 13 12 11 16 7 2 11 12 15 7 9 15 20 21 21 21 13 10 12 3 19 16 18 13 16 19 18 14 11 12 6 14 9 8 9 9 9 9 12
13 7 13 12 12 12 12 18 16 10 6 5 14 11 14 14 17 14 17 17 20 19 15 10 13 10 13 13 19 19 13 13 10 15 12 11 9 1 14 12 11 9 9 10 11
8 8 10 9 12 17 14 19 18 10 10 12 12 12 14 5 11 18 16 10 18 18 14 16 7 8 12 12 15 12 13 14 17 12 12 12 4 12 20 12 14 10 11 13 13
9 8 8 11 14 19 15 21 12 9 15 15 10 15 13 9 12 15 12 12 16 16 16 16 9 13 14 16 17 16 18 17 10 13 9 9 8 8 8 9 15 15 11 13 14
9 13 6 14 10 14 20 19 17 14 14 14 14 10 13 13 9 13 12 9 7 7 10 14 9 11 15 13 7 10 16 18 18 14 7 8 13 8 8 9 12 15 11 11 14
8 5 12 16 22 18 14 17 14 17 20 17 11 15 13 13 11 11 15 6 10 15 6 6 12 15 12 8 5 18 16 16 13 12 14 10 5 7 12 18 17 16 14 13 13
9 6 6 4 15 16 16 12 18 19 18 16 13 16 12 12 16 16 15 16 12 4 5 9 14 13 18 11 9 9 15 18 18 19 16 6 7 9 13 12 18 19 18 14 13
9 8 10 17 13 12 12 16 16 18 13 19 15 18 17 15 16 14 13 17 10 16 14 13 12 15 18 14 9 10 13 15 14 18 16 16 14 23 44 19 18 19 15 14 14
9 9 11 14 13 12 13 16 18 16 18 13 14 15 12 15 13 17 11 12 9 9 16 14 11 14 15 14 19 14 15 17 18 17 16 10 7 17 15 15 15 13 14 16 14
Wind_Direction
17 11 6 2 357 352 349 348 347 345 344 339 333 328 316 309 301 281 260 242 231 216 184 184 195 210 214 229 237 251 265 188 57 18 45 49 15 122 33 167 198 157 51 119 151
13 8 3 358 351 347 345 341 340 339 338 338 333 327 316 311 304 267 249 228 222 197 181 185 194 199 214 222 216 244 244 341 36 20 331 335 335 340 233 184 169 146 119 137 148
8 2 357 354 348 344 341 339 336 336 336 336 334 331 322 319 306 135 236 231 199 188 173 188 195 202 226 224 213 235 271 43 103 25 302 314 279 176 289 278 214 163 153 148 154
360 355 349 346 344 341 340 338 336 335 331 333 332 329 325 309 352 224 224 185 178 162 187 195 207 209 230 216 222 248 257 281 290 304 288 284 341 300 281 319 11 89 140 154 163
346 345 340 336 338 337 337 337 335 333 328 328 327 327 322 269 307 224 188 158 160 168 194 196 207 212 226 219 224 231 272 269 275 271 305 305 275 289 295 336 22 111 146 162 166
336 335 332 331 330 331 331 332 331 329 326 323 318 325 311 258 136 218 176 161 169 180 195 201 209 219 270 253 234 242 233 275 275 276 289 283 282 262 93 203 155 150 161 172 171
330 329 327 326 326 327 327 327 324 322 322 315 311 318 268 284 174 175 172 163 187 188 202 209 225 223 228 245 243 265 256 252 248 246 288 310 272 339 111 145 154 166 173 176 176
328 328 326 324 322 323 323 324 321 318 312 304 302 303 282 233 176 179 175 181 182 204 210 205 220 235 254 261 252 240 247 252 230 166 237 278 103 168 133 141 156 173 179 179 182
325 325 323 321 320 319 321 322 318 311 302 295 310 235 247 211 185 185 185 186 182 186 193 207 223 229 229 242 240 221 249 222 144 163 302 257 307 99 169 161 168 178 184 188 189
322 324 323 322 320 321 325 323 312 304 288 278 234 242 215 236 182 187 184 185 180 184 187 201 214 230 224 230 242 234 208 231 264 163 237 267 248 181 175 202 202 188 185 197 199
320 322 321 321 322 324 336 327 312 286 245 262 284 285 193 187 169 185 184 180 193 196 217 200 215 223 234 221 270 298 292 305 229 255 284 262 324 259 161 210 203 199 185 204 212
314 320 321 320 321 321 3 340 11 320 300 269 251 242 220 195 191 185 178 187 201 208 213 192 233 241 241 257 248 253 257 256 252 227 255 272 273 259 174 217 248 186 216 198 203
306 310 317 317 321 335 288 266 323 325 262 274 222 219 214 213 216 189 191 205 200 218 212 230 189 219 238 235 243 236 249 247 254 191 245 260 259 248 352 182 199 235 229 207 215
301 299 304 313 302 300 257 281 330 310 272 180 191 186 182 193 224 214 199 203 218 238 225 232 251 193 228 234 231 244 219 255 274 260 264 183 288 168 220 186 182 211 218 223 208
306 291 291 287 266 257 249 303 317 293 268 131 133 150 167 198 109 198 198 209 232 215 220 219 220 235 231 227 222 249 175 261 253 251 259 267 243 221 193 236 216 181 179 213 168
304 294 278 302 261 235 282 289 293 233 244 159 155 193 185 208 217 164 192 212 229 238 210 255 186 254 230 218 224 243 212 237 241 249 246 228 253 283 34 242 81 112 161 155 148
302 287 271 246 190 245 263 246 227 240 104 199 196 188 212 186 201 183 190 201 209 210 220 221 228 225 235 221 196 222 199 221 216 224 235 136 232 281 134 96 76 149 168 153 140
305 279 265 238 230 250 228 230 240 263 238 72 291 237 242 207 204 189 195 203 222 214 255 210 214 207 188 231 198 207 222 239 221 280 184 187 233 141 71 134 163 183 174 143 172
316 284 246 241 219 216 220 222 223 244 273 225 237 248 216 204 263 191 207 213 215 228 238 242 243 146 195 207 239 186 226 245 276 281 267 192 200 150 124 156 153 174 169 165 174
323 265 238 212 201 195 224 240 239 261 341 263 246 230 240 200 204 206 204 217 223 212 229 257 267 171 203 222 216 246 194 230 238 262 275 234 262 294 179 167 158 158 166 163 173
316 243 162 202 193 214 223 230 231 237 253 260 254 267 252 253 241 235 230 207 209 201 214 234 232 211 147 215 207 209 227 236 243 231 274 259 223 108 287 147 155 156 160 163 174
275 240 170 182 204 220 226 234 266 232 220 248 265 281 259 224 253 254 233 221 193 231 203 220 227 250 195 208 220 231 210 235 243 230 276 354 1 156 56 137 144 146 160 168 167
273 270 211 194 225 226 224 240 236 224 235 228 236 232 248 255 247 262 237 92 147 245 224 208 232 233 249 208 198 247 249 216 229 255 258 141 250 223 119 169 148 138 150 159 142
270 238 205 212 241 280 255 222 227 233 254 226 243 236 228 241 241 265 232 206 200 239 26 306 223 230 224 265 260 199 244 226 238 240 243 200 288 280 191 146 134 135 144 134 146
240 260 8 225 218 233 247 253 220 230 216 235 232 246 225 234 231 227 263 227 178 167 233 231 237 242 259 268 270 281 198 234 224 242 257 254 286 263 9 136 133 134 132 145 155
306 329 340 282 297 287 212 240 250 220 208 224 224 222 232 244 238 230 216 253 223 183 233 213 237 259 267 246 234 253 264 271 261 236 252 283 312 116 206 128 132 143 145 155 154
331 290 270 278 237 242 237 223 235 253 226 238 216 235 234 223 252 277 334 323 308 312 203 227 234 247 249 241 248 220 236 243 245 261 273 270 58 118 126 125 125 138 157 143 144
Height
1523 1522 1521 1519 1517 1516 1514 1512 1510 1509 1507 1506 1504 1503 1502 1501 1500 1498 1498 1500 1499 1501 1503 1507 1510 1511 1511 1509 1506 1500 1483 1476 1469 1475 1472 1472 1474 1481 1484 1480 1485 1486 1488 1494 1504
1524 1522 1521 1519 1518 1516 1514 1512 1510 1508 1506 1505 1503 1502 1501 1499 1497 1495 1497 1496 1497 1499 1502 1507 1509 1510 1508 1505 1502 1495 1480 1470 1474 1477 1477 1477 1480 1480 1478 1476 1489 1493 1493 1497 1504
1524 1522 1521 1519 1517 1515 1513 1511 1509 1507 1505 1503 1502 1501 1499 1498 1496 1495 1495 1494 1496 1499 1505 1508 1509 1509 1505 1500 1497 1491 1481 1474 1477 1481 1481 1478 1475 1474 1473 1472 1478 1469 1491 1497 1504
1524 1522 1520 1519 1517 1515 1513 1510 1508 1506 1504 1502 1501 1500 1498 1497 1492 1494 1493 1494 1496 1499 1506 1507 1508 1507 1502 1496 1494 1493 1485 1484 1481 1482 1481 1477 1475 1475 1473 1472 1480 1482 1486 1497 1504
1524 1522 1520 1518 1516 1514 1512 1510 1508 1506 1504 1501 1500 1499 1498 1497 1495 1493 1493 1494 1496 1500 1505 1506 1506 1505 1497 1491 1491 1491 1485 1484 1483 1481 1479 1480 1476 1473 1477 1476 1481 1483 1491 1498 1503
1522 1521 1519 1517 1515 1513 1511 1509 1507 1505 1503 1500 1500 1498 1497 1496 1494 1493 1493 1495 1498 1502 1504 1505 1504 1503 1496 1490 1489 1485 1487 1484 1483 1479 1477 1478 1473 1471 1476 1479 1485 1488 1494 1498 1503
1521 1520 1518 1516 1514 1511 1509 1507 1505 1503 1501 1499 1498 1497 1496 1496 1494 1494 1494 1497 1500 1502 1503 1504 1503 1502 1497 1491 1490 1488 1491 1484 1476 1473 1477 1475 1469 1486 1475 1480 1484 1490 1494 1498 1502
1520 1518 1516 1514 1512 1510 1507 1505 1503 1501 1499 1497 1497 1496 1495 1491 1493 1493 1497 1498 1500 1501 1502 1503 1504 1501 1497 1491 1492 1491 1485 1484 1464 1473 1472 1475 1487 1476 1476 1479 1484 1488 1493 1497 1502
1519 1517 1515 1513 1511 1509 1506 1504 1501 1498 1496 1495 1495 1495 1488 1489 1491 1493 1495 1497 1499 1501 1502 1503 1503 1499 1496 1495 1488 1479 1484 1471 1469 1474 1472 1474 1472 1473 1476 1478 1481 1487 1491 1496 1501
1517 1516 1514 1511 1509 1507 1505 1501 1498 1495 1494 1493 1493 1499 1489 1487 1489 1491 1494 1497 1498 1500 1501 1502 1501 1493 1490 1486 1491 1475 1471 1466 1478 1471 1471 1472 1470 1465 1476 1477 1478 1483 1489 1493 1497
1516 1514 1512 1510 1508 1506 1505 1500 1499 1497 1494 1487 1486 1484 1486 1487 1488 1491 1493 1495 1497 1497 1494 1495 1494 1489 1481 1476 1472 1469 1473 1473 1470 1471 1478 1472 1471 1465 1470 1475 1475 1480 1484 1490 1494
1514 1512 1511 1509 1507 1506 1505 1503 1504 1504 1492 1483 1481 1482 1484 1485 1486 1488 1491 1493 1492 1490 1487 1488 1489 1477 1475 1473 1476 1477 1482 1480 1471 1470 1477 1472 1469 1460 1463 1468 1470 1473 1481 1485 1491
1511 1510 1509 1508 1506 1506 1506 1505 1502 1502 1494 1474 1475 1476 1479 1483 1479 1481 1486 1485 1485 1483 1479 1481 1471 1471 1475 1477 1480 1478 1479 1475 1477 1470 1470 1472 1473 1463 1462 1464 1469 1474 1477 1481 1485
1509 1508 1507 1507 1507 1505 1504 1502 1502 1500 1488 1464 1469 1471 1475 1476 1476 1474 1480 1482 1478 1477 1473 1474 1470 1473 1475 1477 1475 1481 1468 1473 1475 1479 1484 1463 1485 1468 1463 1458 1463 1471 1477 1480 1483
1507 1505 1505 1505 1503 1505 1504 1503 1501 1502 1492 1458 1463 1468 1470 1470 1464 1469 1474 1477 1471 1470 1470 1470 1468 1469 1475 1471 1471 1473 1468 1475 1475 1477 1476 1470 1479 1459 1454 1459 1455 1462 1472 1478 1482
1505 1503 1503 1503 1502 1502 1501 1502 1503 1497 1485 1454 1457 1461 1464 1465 1463 1465 1471 1473 1470 1465 1466 1463 1462 1463 1464 1464 1467 1468 1475 1478 1476 1475 1488 1471 1468 1462 1458 1466 1457 1465 1473 1478 1485
1502 1500 1499 1499 1500 1501 1500 1502 1494 1484 1451 1450 1451 1450 1450 1449 1457 1462 1465 1467 1467 1476 1472 1463 1460 1462 1463 1465 1465 1469 1477 1492 1496 1488 1482 1457 1470 1462 1451 1459 1462 1467 1474 1479 1487
1497 1496 1494 1494 1497 1497 1500 1496 1492 1456 1451 1449 1452 1449 1452 1443 1447 1455 1459 1463 1458 1455 1452 1464 1469 1454 1456 1459 1463 1468 1469 1477 1494 1482 1472 1461 1472 1460 1453 1459 1467 1470 1473 1478 1485
1493 1492 1491 1491 1491 1494 1497 1487 1473 1460 1449 1452 1451 1453 1445 1442 1445 1446 1451 1453 1449 1450 1461 1453 1456 1441 1446 1454 1456 1463 1474 1457 1467 1458 1465 1464 1443 1449 1454 1460 1466 1469 1473 1478 1482
1490 1490 1488 1488 1488 1493 1489 1477 1459 1455 1459 1459 1460 1444 1446 1442 1447 1443 1444 1440 1443 1443 1448 1446 1461 1438 1443 1449 1451 1453 1452 1474 1465 1489 1486 1462 1455 1453 1455 1458 1463 1468 1472 1477 1482
1489 1484 1481 1485 1488 1487 1474 1465 1461 1460 1465 1463 1455 1449 1445 1440 1443 1436 1440 1434 1436 1438 1443 1446 1453 1442 1446 1453 1452 1454 1457 1457 1448 1452 1471 1471 1455 1459 1457 1449 1458 1466 1470 1476 1480
1489 1479 1479 1482 1484 1474 1465 1461 1459 1459 1462 1463 1459 1452 1448 1445 1448 1439 1437 1429 1435 1435 1441 1443 1447 1455 1446 1439 1440 1439 1448 1451 1461 1468 1454 1464 1467 1445 1446 1452 1454 1464 1470 1474 1478
1487 1475 1477 1479 1469 1459 1457 1456 1455 1460 1456 1458 1458 1455 1452 1451 1457 1441 1436 1433 1439 1438 1439 1440 1450 1459 1454 1437 1438 1445 1438 1441 1445 1450 1463 1514 1479 1453 1440 1453 1457 1464 1471 1475 1479
1489 1470 1470 1473 1467 1457 1449 1453 1454 1459 1455 1454 1451 1452 1452 1452 1447 1445 1440 1436 1444 1443 1443 1441 1441 1449 1446 1443 1431 1443 1441 1434 1441 1455 1450 1458 1456 1452 1442 1446 1453 1464 1472 1477 1482
1486 1471 1468 1456 1458 1457 1456 1447 1452 1452 1454 1453 1453 1451 1450 1456 1451 1450 1441 1436 1442 1445 1446 1444 1452 1441 1434 1430 1434 1429 1436 1437 1439 1440 1448 1442 1451 1447 1466 1457 1458 1463 1476 1481 1485
1487 1479 1474 1468 1461 1456 1453 1453 1449 1446 1445 1450 1452 1448 1449 1450 1447 1446 1442 1439 1437 1439 1444 1442 1448 1443 1439 1428 1429 1438 1433 1432 1430 1430 1433 1430 1436 1455 1456 1456 1461 1466 1477 1481 1484
1492 1489 1486 1469 1462 1459 1453 1452 1450 1446 1444 1445 1446 1449 1444 1445 1446 1443 1445 1443 1438 1439 1439 1441 1444 1447 1448 1430 1430 1443 1433 1432 1430 1428 1430 1442 1437 1439 1455 1459 1463 1469 1474 1480 1488